| time (UTC) | temp F | wind direction | speed knots | gust knots | rain 1hr in | rain 24hr in | rain mn in | humidity % | barometer mb |
| 20260505035844 | 77 | 184 | 0.0 | 0.0 | 0.00 | 0.00 | 0.00 | 84 | 1018.3 |
| 20260505035340 | 77 | 168 | 0.9 | 0.9 | 0.00 | 0.00 | 0.00 | 84 | 1018.1 |
| 20260505034837 | 78 | 201 | 0.0 | 0.0 | 0.00 | 0.00 | 0.00 | 84 | 1018.7 |
| 20260505034334 | 78 | 178 | 0.0 | 0.0 | 0.00 | 0.00 | 0.00 | 84 | 1018.7 |
| 20260505033831 | 78 | 176 | 0.0 | 0.0 | 0.00 | 0.00 | 0.00 | 84 | 1018.7 |
| 20260505033328 | 78 | 189 | 0.0 | 0.0 | 0.00 | 0.00 | 0.00 | 84 | 1018.8 |
| 20260505032826 | 77 | 160 | 0.9 | 1.7 | 0.00 | 0.00 | 0.00 | 85 | 1018.8 |
| 20260505032322 | 78 | 169 | 0.9 | 0.9 | 0.00 | 0.00 | 0.00 | 83 | 1018.9 |
| 20260505031820 | 79 | 180 | 0.9 | 0.9 | 0.00 | 0.00 | 0.00 | 82 | 1018.8 |
| 20260505031316 | 79 | 180 | 0.0 | 0.0 | 0.00 | 0.00 | 0.00 | 83 | 1018.8 |
| 20260505030813 | 79 | 174 | 0.0 | 0.0 | 0.00 | 0.00 | 0.00 | 82 | 1019.0 |
| 20260505030310 | 79 | 181 | 0.0 | 0.0 | 0.00 | 0.00 | 0.00 | 82 | 1018.9 |
| 20260505025804 | 79 | 160 | 0.0 | 0.0 | 0.00 | 0.00 | 0.00 | 83 | 1018.8 |
| 20260505025304 | 79 | 174 | 0.0 | 0.0 | 0.00 | 0.00 | 0.00 | 82 | 1018.8 |
| 20260505024801 | 79 | 168 | 0.0 | 0.0 | 0.00 | 0.00 | 0.00 | 82 | 1018.8 |
| 20260505024258 | 79 | 175 | 0.9 | 0.9 | 0.00 | 0.00 | 0.00 | 83 | 1018.7 |
| 20260505023755 | 79 | 167 | 0.0 | 0.9 | 0.00 | 0.00 | 0.00 | 83 | 1018.7 |
| 20260505023252 | 79 | 161 | 0.9 | 0.9 | 0.00 | 0.00 | 0.00 | 82 | 1018.7 |
| 20260505022750 | 80 | 174 | 0.0 | 0.0 | 0.00 | 0.00 | 0.00 | 82 | 1018.6 |
| 20260505022246 | 80 | 174 | 0.0 | 0.0 | 0.00 | 0.00 | 0.00 | 82 | 1018.2 |
| 20260505021743 | 79 | 179 | 0.0 | 0.0 | 0.00 | 0.00 | 0.00 | 82 | 1018.6 |
| 20260505021240 | 79 | 111 | 0.9 | 0.9 | 0.00 | 0.00 | 0.00 | 82 | 1018.5 |
| 20260505020736 | 80 | 143 | 0.9 | 0.9 | 0.00 | 0.00 | 0.00 | 81 | 1018.5 |
| 20260505020231 | 80 | 189 | 0.0 | 0.0 | 0.00 | 0.00 | 0.00 | 80 | 1018.3 |
| 20260505015729 | 80 | 178 | 0.0 | 0.0 | 0.00 | 0.00 | 0.00 | 80 | 1018.1 |
| 20260505015226 | 80 | 173 | 0.0 | 0.0 | 0.00 | 0.00 | 0.00 | 81 | 1018.2 |
| 20260505014723 | 81 | 150 | 0.0 | 0.0 | 0.00 | 0.00 | 0.00 | 79 | 1018.2 |
| 20260505014220 | 81 | 176 | 0.0 | 0.0 | 0.00 | 0.00 | 0.00 | 79 | 1018.2 |
| 20260505013716 | 80 | 192 | 0.0 | 0.0 | 0.00 | 0.00 | 0.00 | 79 | 1018.2 |
| 20260505013213 | 80 | 186 | 0.0 | 0.0 | 0.00 | 0.00 | 0.00 | 79 | 1018.0 |
| 20260505012712 | 80 | 192 | 0.0 | 0.0 | 0.00 | 0.00 | 0.00 | 80 | 1018.2 |
| 20260505012209 | 80 | 216 | 0.0 | 0.0 | 0.00 | 0.00 | 0.00 | 80 | 1017.9 |
| 20260505011704 | 80 | 200 | 0.0 | 0.0 | 0.00 | 0.00 | 0.00 | 80 | 1018.0 |
| 20260505011202 | 80 | 195 | 0.0 | 0.0 | 0.00 | 0.00 | 0.00 | 80 | 1018.0 |
| 20260505010657 | 80 | 202 | 0.0 | 0.0 | 0.00 | 0.00 | 0.00 | 81 | 1017.7 |
| 20260505010154 | 80 | 211 | 0.0 | 0.0 | 0.00 | 0.00 | 0.00 | 80 | 1017.9 |
| 20260505005650 | 81 | 217 | 0.9 | 0.9 | 0.00 | 0.00 | 0.00 | 79 | 1017.8 |
| 20260505005147 | 81 | 188 | 0.0 | 0.0 | 0.00 | 0.00 | 0.00 | 78 | 1017.5 |
| 20260505004644 | 82 | 200 | 0.9 | 1.7 | 0.00 | 0.00 | 0.00 | 76 | 1017.6 |
| 20260505004141 | 82 | 191 | 0.0 | 0.0 | 0.00 | 0.00 | 0.00 | 76 | 1017.5 |
| 20260505003638 | 82 | 183 | 0.0 | 0.0 | 0.00 | 0.00 | 0.00 | 76 | 1017.5 |
| 20260505003136 | 82 | 203 | 0.9 | 0.9 | 0.00 | 0.00 | 0.00 | 76 | 1017.5 |
| 20260505002631 | 82 | 184 | 0.0 | 0.0 | 0.00 | 0.00 | 0.00 | 75 | 1017.2 |
| 20260505002130 | 82 | 189 | 0.0 | 0.0 | 0.00 | 0.00 | 0.00 | 75 | 1017.0 |
| 20260505001627 | 82 | 196 | 0.0 | 0.0 | 0.00 | 0.00 | 0.00 | 75 | 1017.2 |
| 20260505001124 | 83 | 193 | 0.9 | 0.9 | 0.00 | 0.00 | 0.00 | 75 | 1017.2 |
| 20260505000621 | 82 | 165 | 1.7 | 1.7 | 0.00 | 0.00 | 0.00 | 74 | 1017.4 |
| 20260505000119 | 83 | 172 | 1.7 | 1.7 | 0.00 | 0.00 | 0.00 | 74 | 1017.3 |
| 20260504235615 | 83 | 165 | 0.9 | 0.9 | 0.00 | 0.00 | 0.00 | 74 | 1017.1 |
| 20260504235112 | 83 | 208 | 0.9 | 0.9 | 0.00 | 0.00 | 0.00 | 73 | 1017.1 |
| 20260504234609 | 83 | 207 | 2.6 | 2.6 | 0.00 | 0.00 | 0.00 | 73 | 1017.0 |
| 20260504234106 | 83 | 213 | 0.0 | 0.0 | 0.00 | 0.00 | 0.00 | 72 | 1016.9 |
| 20260504233601 | 84 | 183 | 0.9 | 0.9 | 0.00 | 0.00 | 0.00 | 72 | 1016.9 |
| 20260504233058 | 84 | 162 | 0.9 | 1.7 | 0.00 | 0.00 | 0.00 | 72 | 1016.9 |
| 20260504232555 | 84 | 184 | 2.6 | 2.6 | 0.00 | 0.00 | 0.00 | 71 | 1017.2 |
| 20260504232053 | 84 | 183 | 0.9 | 1.7 | 0.00 | 0.00 | 0.00 | 71 | 1016.9 |
| 20260504231549 | 84 | 120 | 2.6 | 2.6 | 0.00 | 0.00 | 0.00 | 71 | 1016.7 |
| 20260504231045 | 85 | 178 | 0.9 | 0.9 | 0.00 | 0.00 | 0.00 | 69 | 1016.8 |
| 20260504230541 | 85 | 131 | 1.7 | 1.7 | 0.00 | 0.00 | 0.00 | 70 | 1016.7 |
| 20260504230041 | 85 | 152 | 2.6 | 2.6 | 0.00 | 0.00 | 0.00 | 69 | 1016.9 |
| 20260504225537 | 85 | 166 | 0.9 | 0.9 | 0.00 | 0.00 | 0.00 | 69 | 1016.5 |
| 20260504225034 | 86 | 206 | 0.9 | 1.7 | 0.00 | 0.00 | 0.00 | 67 | 1016.4 |
| 20260504224531 | 86 | 176 | 0.9 | 1.7 | 0.00 | 0.00 | 0.00 | 67 | 1016.4 |
| 20260504224028 | 87 | 154 | 2.6 | 2.6 | 0.00 | 0.00 | 0.00 | 65 | 1016.3 |
| 20260504223525 | 87 | 208 | 0.9 | 1.7 | 0.00 | 0.00 | 0.00 | 65 | 1016.3 |
| 20260504223021 | 88 | 199 | 0.9 | 0.9 | 0.00 | 0.00 | 0.00 | 64 | 1016.3 |
| 20260504222518 | 88 | 206 | 0.9 | 1.7 | 0.00 | 0.00 | 0.00 | 63 | 1016.1 |
| 20260504222015 | 88 | 221 | 0.0 | 0.0 | 0.00 | 0.00 | 0.00 | 63 | 1016.0 |
| 20260504221512 | 88 | 181 | 1.7 | 1.7 | 0.00 | 0.00 | 0.00 | 62 | 1015.9 |
| 20260504221009 | 88 | 228 | 0.0 | 0.9 | 0.00 | 0.00 | 0.00 | 61 | 1015.9 |
| 20260504220505 | 88 | 219 | 0.0 | 0.0 | 0.00 | 0.00 | 0.00 | 59 | 1015.7 |
| 20260504220003 | 89 | 179 | 1.7 | 1.7 | 0.00 | 0.00 | 0.00 | 59 | 1015.8 |
| 20260504215459 | 89 | 157 | 0.0 | 0.0 | 0.00 | 0.00 | 0.00 | 58 | 1015.7 |
| 20260504214956 | 89 | 193 | 0.0 | 0.0 | 0.00 | 0.00 | 0.00 | 58 | 1015.7 |
| 20260504214452 | 89 | 213 | 0.9 | 0.9 | 0.00 | 0.00 | 0.00 | 60 | 1015.6 |
| 20260504213949 | 89 | 252 | 0.9 | 0.9 | 0.00 | 0.00 | 0.00 | 59 | 1015.8 |
| 20260504213445 | 89 | 153 | 0.0 | 0.9 | 0.00 | 0.00 | 0.00 | 60 | 1015.6 |
| 20260504212943 | 89 | 173 | 0.9 | 0.9 | 0.00 | 0.00 | 0.00 | 59 | 1015.5 |
| 20260504212438 | 90 | 157 | 1.7 | 1.7 | 0.00 | 0.00 | 0.00 | 54 | 1015.6 |
| 20260504211936 | 93 | 190 | 2.6 | 4.3 | 0.00 | 0.00 | 0.00 | 50 | 1015.5 |
| 20260504211432 | 92 | 138 | 1.7 | 1.7 | 0.00 | 0.00 | 0.00 | 51 | 1015.6 |
| 20260504210930 | 93 | 144 | 3.5 | 5.2 | 0.00 | 0.00 | 0.00 | 50 | 1015.5 |
| 20260504210426 | 92 | 194 | 0.0 | 0.0 | 0.00 | 0.00 | 0.00 | 51 | 1015.6 |
| 20260504205924 | 93 | 141 | 2.6 | 5.2 | 0.00 | 0.00 | 0.00 | 50 | 1015.4 |
| 20260504205421 | 93 | 149 | 4.3 | 5.2 | 0.00 | 0.00 | 0.00 | 51 | 1015.4 |
| 20260504204919 | 93 | 166 | 2.6 | 5.2 | 0.00 | 0.00 | 0.00 | 51 | 1015.3 |
| 20260504204417 | 93 | 176 | 1.7 | 1.7 | 0.00 | 0.00 | 0.00 | 50 | 1015.2 |
| 20260504203916 | 93 | 226 | 3.5 | 4.3 | 0.00 | 0.00 | 0.00 | 50 | 1015.4 |
| 20260504203414 | 92 | 198 | 0.0 | 0.0 | 0.00 | 0.00 | 0.00 | 51 | 1015.4 |
| 20260504202909 | 93 | 217 | 2.6 | 2.6 | 0.00 | 0.00 | 0.00 | 49 | 1015.4 |
| 20260504202406 | 94 | 211 | 2.6 | 2.6 | 0.00 | 0.00 | 0.00 | 48 | 1015.3 |
| 20260504201903 | 93 | 194 | 1.7 | 1.7 | 0.00 | 0.00 | 0.00 | 49 | 1015.0 |
| 20260504201400 | 94 | 147 | 4.3 | 6.1 | 0.00 | 0.00 | 0.00 | 49 | 1015.2 |
| 20260504200857 | 95 | 148 | 2.6 | 4.3 | 0.00 | 0.00 | 0.00 | 47 | 1015.1 |
| 20260504200354 | 94 | 179 | 1.7 | 2.6 | 0.00 | 0.00 | 0.00 | 49 | 1015.0 |
| 20260504195851 | 94 | 155 | 2.6 | 2.6 | 0.00 | 0.00 | 0.00 | 48 | 1014.9 |
| 20260504195346 | 94 | 109 | 2.6 | 4.3 | 0.00 | 0.00 | 0.00 | 48 | 1014.9 |
| 20260504194843 | 94 | 260 | 1.7 | 1.7 | 0.00 | 0.00 | 0.00 | 49 | 1014.8 |
| 20260504194339 | 93 | 143 | 0.0 | 0.9 | 0.00 | 0.00 | 0.00 | 49 | 1015.2 |
| 20260504193835 | 94 | 205 | 1.7 | 1.7 | 0.00 | 0.00 | 0.00 | 47 | 1015.2 |
| 20260504193333 | 96 | 183 | 3.5 | 5.2 | 0.00 | 0.00 | 0.00 | 46 | 1015.2 |
| 20260504192831 | 94 | 186 | 2.6 | 4.3 | 0.00 | 0.00 | 0.00 | 50 | 1014.9 |
| 20260504192329 | 93 | 81 | 0.9 | 1.7 | 0.00 | 0.00 | 0.00 | 60 | 1015.3 |
| 20260504191827 | 93 | 60 | 1.7 | 1.7 | 0.00 | 0.00 | 0.00 | 59 | 1015.3 |
| 20260504191324 | 92 | 5 | 2.6 | 5.2 | 0.00 | 0.00 | 0.00 | 61 | 1015.3 |
| 20260504190820 | 92 | 62 | 3.5 | 5.2 | 0.00 | 0.00 | 0.00 | 63 | 1015.2 |
| 20260504190316 | 92 | 98 | 4.3 | 6.1 | 0.00 | 0.00 | 0.00 | 63 | 1015.4 |
| 20260504185813 | 92 | 189 | 0.9 | 0.9 | 0.00 | 0.00 | 0.00 | 63 | 1015.3 |
| 20260504185310 | 92 | 68 | 4.3 | 5.2 | 0.00 | 0.00 | 0.00 | 62 | 1015.4 |
| 20260504184806 | 91 | 85 | 1.7 | 1.7 | 0.00 | 0.00 | 0.00 | 64 | 1015.4 |
| 20260504184302 | 90 | 59 | 1.7 | 1.7 | 0.00 | 0.00 | 0.00 | 66 | 1015.5 |
| 20260504183757 | 91 | 71 | 2.6 | 4.3 | 0.00 | 0.00 | 0.00 | 64 | 1015.5 |
| 20260504183254 | 90 | 81 | 4.3 | 6.1 | 0.00 | 0.00 | 0.00 | 66 | 1015.6 |
| 20260504182753 | 90 | 101 | 4.3 | 7.0 | 0.00 | 0.00 | 0.00 | 64 | 1015.8 |
| 20260504182249 | 91 | 105 | 3.5 | 5.2 | 0.00 | 0.00 | 0.00 | 65 | 1015.7 |
| 20260504181747 | 91 | 65 | 1.7 | 2.6 | 0.00 | 0.00 | 0.00 | 64 | 1015.9 |
| 20260504181244 | 92 | 94 | 6.1 | 7.8 | 0.00 | 0.00 | 0.00 | 60 | 1015.7 |
| 20260504180743 | 93 | 43 | 3.5 | 4.3 | 0.00 | 0.00 | 0.00 | 61 | 1016.1 |
| 20260504180242 | 94 | 21 | 3.5 | 5.2 | 0.00 | 0.00 | 0.00 | 58 | 1016.0 |
| 20260504175739 | 96 | 113 | 2.6 | 4.3 | 0.00 | 0.00 | 0.00 | 43 | 1016.1 |
| 20260504175235 | 96 | 267 | 0.0 | 0.0 | 0.00 | 0.00 | 0.00 | 42 | 1016.2 |
| 20260504174733 | 95 | 287 | 1.7 | 1.7 | 0.00 | 0.00 | 0.00 | 44 | 1016.1 |
| 20260504174231 | 94 | 232 | 3.5 | 4.3 | 0.00 | 0.00 | 0.00 | 45 | 1016.3 |
| 20260504173727 | 94 | 175 | 0.9 | 1.7 | 0.00 | 0.00 | 0.00 | 44 | 1016.2 |
| 20260504173224 | 94 | 97 | 7.8 | 9.6 | 0.00 | 0.00 | 0.00 | 45 | 1016.5 |
| 20260504172721 | 94 | 237 | 1.7 | 2.6 | 0.00 | 0.00 | 0.00 | 46 | 1016.1 |
| 20260504172217 | 95 | 214 | 4.3 | 7.0 | 0.00 | 0.00 | 0.00 | 45 | 1016.2 |
| 20260504171714 | 92 | 168 | 3.5 | 5.2 | 0.00 | 0.00 | 0.00 | 47 | 1016.7 |
| 20260504171211 | 92 | 93 | 3.5 | 5.2 | 0.00 | 0.00 | 0.00 | 48 | 1016.6 |
| 20260504170708 | 91 | 271 | 0.9 | 1.7 | 0.00 | 0.00 | 0.00 | 51 | 1016.3 |
| 20260504170206 | 92 | 83 | 0.9 | 1.7 | 0.00 | 0.00 | 0.00 | 51 | 1016.5 |
| 20260504160124 | 90 | 24 | 0.9 | 0.9 | 0.00 | 0.00 | 0.00 | 61 | 1017.1 |
| 20260504151051 | 91 | 145 | 1.7 | 4.3 | 0.00 | 0.00 | 0.00 | 58 | 1017.8 |
| 20260504150548 | 89 | 102 | 3.5 | 5.2 | 0.00 | 0.00 | 0.00 | 58 | 1018.0 |
| 20260504141014 | 88 | 102 | 5.2 | 7.8 | 0.00 | 0.00 | 0.00 | 63 | 1018.2 |
| 20260504140510 | 87 | 121 | 8.7 | 11.3 | 0.00 | 0.00 | 0.00 | 64 | 1018.0 |
| 20260504130435 | 85 | 131 | 3.5 | 5.2 | 0.00 | 0.00 | 0.00 | 71 | 1018.3 |
| 20260504110322 | 80 | 184 | 0.9 | 0.9 | 0.00 | 0.00 | 0.00 | 83 | 1018.6 |
| 20260504100240 | 73 | 181 | 0.0 | 0.0 | 0.00 | 0.00 | 0.00 | 94 | 1017.9 |
| 20260504081633 | 74 | 181 | 0.0 | 0.0 | 0.00 | 0.00 | 0.00 | 93 | 1017.3 |
| 20260504081129 | 74 | 194 | 0.0 | 0.0 | 0.00 | 0.00 | 0.00 | 93 | 1017.4 |
| 20260504080626 | 74 | 193 | 0.0 | 0.0 | 0.00 | 0.00 | 0.00 | 93 | 1017.3 |
| 20260504080122 | 74 | 145 | 0.0 | 0.0 | 0.00 | 0.00 | 0.00 | 93 | 1017.3 |
| 20260504050439 | 77 | 198 | 0.0 | 0.0 | 0.00 | 0.00 | 0.00 | 84 | 1017.9 |
| 20260504045936 | 77 | 150 | 0.0 | 0.0 | 0.00 | 0.00 | 0.00 | 84 | 1018.3 |
| 20260504045431 | 78 | 150 | 0.9 | 0.9 | 0.00 | 0.00 | 0.00 | 83 | 1018.5 |
| 20260504044928 | 78 | 173 | 0.0 | 0.0 | 0.00 | 0.00 | 0.00 | 83 | 1018.3 |
| 20260504044426 | 77 | 149 | 0.0 | 0.0 | 0.00 | 0.00 | 0.00 | 82 | 1018.6 |
| 20260504043923 | 77 | 190 | 0.0 | 0.0 | 0.00 | 0.00 | 0.00 | 82 | 1018.6 |
| 20260504043420 | 77 | 192 | 0.0 | 0.0 | 0.00 | 0.00 | 0.00 | 82 | 1018.7 |
| 20260504042917 | 77 | 171 | 0.0 | 0.0 | 0.00 | 0.00 | 0.00 | 82 | 1018.8 |
| 20260504042414 | 77 | 184 | 0.0 | 0.0 | 0.00 | 0.00 | 0.00 | 82 | 1018.9 |
| 20260504041910 | 77 | 172 | 0.0 | 0.0 | 0.00 | 0.00 | 0.00 | 82 | 1018.9 |
| 20260504041406 | 77 | 185 | 0.0 | 0.0 | 0.00 | 0.00 | 0.00 | 82 | 1018.9 |
| 20260504040902 | 77 | 187 | 0.0 | 0.0 | 0.00 | 0.00 | 0.00 | 83 | 1019.1 |
| 20260504040400 | 76 | 169 | 0.0 | 0.0 | 0.00 | 0.00 | 0.00 | 83 | 1019.2 |